• Em Portugal
  • Lista de países
  • Para 7 dias
  • Temperatura da água
  • Mapas de satélite
  • Mapa do tempo
  • Widgets de tempo
  • user-avatar
    Iniciar Sessão

    Previsão horária em Lindenberg im Allgäu

    Hoje, 22 Novembro, Quarta-feira

    Tempo Temperatura Precipitação Vento Pressão Humidade
    00:00 +5°C° 0,4 mm 3 m/s 752 mmHg 95%
    01:00 +7°C° 0 mm 3 m/s 752 mmHg 94%
    02:00 +7°C° 0,2 mm 3 m/s 752 mmHg 93%
    03:00 +6°C° 0,2 mm 4 m/s 751 mmHg 92%
    04:00 +7°C° 0,2 mm 4 m/s 751 mmHg 91%
    05:00 +7°C° 0,3 mm 4 m/s 751 mmHg 90%
    06:00 +6°C° 0,3 mm 5 m/s 751 mmHg 89%
    07:00 +6°C° 0 mm 4 m/s 750 mmHg 89%
    08:00 +6°C° 0,1 mm 4 m/s 751 mmHg 87%
    09:00 +7°C° 0,1 mm 4 m/s 751 mmHg 85%
    10:00 +7°C° 0,1 mm 5 m/s 751 mmHg 83%
    11:00 +8°C° 0 mm 5 m/s 751 mmHg 81%
    12:00 +8°C° 0 mm 5 m/s 751 mmHg 80%
    13:00 +10°C° 0 mm 4 m/s 752 mmHg 78%
    14:00 +10°C° 0 mm 4 m/s 752 mmHg 80%
    15:00 +8°C° 0 mm 4 m/s 752 mmHg 81%
    16:00 +9°C° 0 mm 3 m/s 752 mmHg 83%
    17:00 +9°C° 0 mm 3 m/s 752 mmHg 84%
    18:00 +8°C° 0 mm 3 m/s 752 mmHg 86%
    19:00 +8°C° 0 mm 3 m/s 752 mmHg 87%
    20:00 +7°C° 0 mm 3 m/s 752 mmHg 88%
    21:00 +7°C° 0 mm 3 m/s 752 mmHg 88%
    22:00 +5°C° 0 mm 3 m/s 752 mmHg 89%
    23:00 +5°C° 0 mm 3 m/s 752 mmHg 88%

    Amanhã, 23 Novembro, Quinta-feira

    Tempo Temperatura Precipitação Vento Pressão Humidade
    00:00 +5°C° 0 mm 3 m/s 752 mmHg 86%
    01:00 +5°C° 0 mm 3 m/s 752 mmHg 85%
    02:00 +5°C° 0 mm 3 m/s 752 mmHg 84%
    03:00 +5°C° 0 mm 3 m/s 752 mmHg 82%
    04:00 +5°C° 0 mm 4 m/s 751 mmHg 80%
    05:00 +5°C° 0 mm 4 m/s 751 mmHg 79%
    06:00 +5°C° 0 mm 4 m/s 751 mmHg 78%
    07:00 +5°C° 0 mm 4 m/s 751 mmHg 76%
    08:00 +6°C° 0 mm 4 m/s 751 mmHg 72%
    09:00 +7°C° 0 mm 5 m/s 751 mmHg 68%
    10:00 +8°C° 0 mm 5 m/s 752 mmHg 65%
    11:00 +9°C° 0 mm 5 m/s 751 mmHg 62%
    12:00 +10°C° 0 mm 5 m/s 751 mmHg 60%
    13:00 +11°C° 0 mm 6 m/s 751 mmHg 57%
    14:00 +12°C° 0 mm 5 m/s 752 mmHg 60%
    15:00 +10°C° 0 mm 5 m/s 752 mmHg 63%
    16:00 +11°C° 0 mm 4 m/s 752 mmHg 65%
    17:00 +10°C° 0 mm 5 m/s 752 mmHg 67%
    18:00 +9°C° 0 mm 5 m/s 753 mmHg 68%
    19:00 +9°C° 0 mm 5 m/s 753 mmHg 69%
    20:00 +9°C° 0 mm 5 m/s 753 mmHg 71%
    21:00 +9°C° 0 mm 5 m/s 753 mmHg 73%
    22:00 +9°C° 0 mm 5 m/s 754 mmHg 75%
    23:00 +10°C° 0 mm 4 m/s 754 mmHg 77%

    Depois de amanhã, 24 Novembro, Sexta-feira

    Tempo Temperatura Precipitação Vento Pressão Humidade
    00:00 +10°C° 0 mm 4 m/s 755 mmHg 79%
    01:00 +8°C° 0 mm 4 m/s 755 mmHg 82%
    02:00 +9°C° 0 mm 3 m/s 755 mmHg 84%
    03:00 +9°C° 0 mm 3 m/s 755 mmHg 86%
    04:00 +8°C° 0 mm 3 m/s 755 mmHg 87%
    05:00 +8°C° 0 mm 3 m/s 755 mmHg 88%
    06:00 +7°C° 0 mm 4 m/s 755 mmHg 88%
    07:00 +7°C° 0 mm 4 m/s 755 mmHg 88%
    08:00 +8°C° 0 mm 4 m/s 755 mmHg 83%
    09:00 +9°C° 0 mm 5 m/s 755 mmHg 78%
    10:00 +10°C° 0 mm 6 m/s 755 mmHg 74%
    11:00 +12°C° 0 mm 5 m/s 754 mmHg 71%
    12:00 +13°C° 0 mm 5 m/s 754 mmHg 68%
    13:00 +14°C° 0 mm 5 m/s 754 mmHg 66%
    14:00 +13°C° 0,3 mm 5 m/s 754 mmHg 70%
    15:00 +12°C° 0,3 mm 5 m/s 754 mmHg 74%
    16:00 +11°C° 0,3 mm 4 m/s 754 mmHg 79%
    17:00 +11°C° 0 mm 4 m/s 755 mmHg 80%
    18:00 +10°C° 0 mm 4 m/s 755 mmHg 81%
    19:00 +10°C° 0 mm 3 m/s 755 mmHg 82%
    20:00 +9°C° 0 mm 3 m/s 755 mmHg 84%
    21:00 +9°C° 0 mm 2 m/s 756 mmHg 85%
    22:00 +9°C° 0 mm 2 m/s 756 mmHg 87%
    23:00 +9°C° 0 mm 2 m/s 755 mmHg 89%

    25 Novembro, Sábado

    Tempo Temperatura Precipitação Vento Pressão Humidade
    00:00 +9°C° 0 mm 2 m/s 755 mmHg 90%
    01:00 +8°C° 0 mm 3 m/s 755 mmHg 91%
    02:00 +8°C° 0 mm 3 m/s 754 mmHg 89%
    03:00 +7°C° 0 mm 4 m/s 753 mmHg 88%
    04:00 +8°C° 0 mm 5 m/s 751 mmHg 86%
    05:00 +8°C° 0,1 mm 5 m/s 751 mmHg 81%
    06:00 +9°C° 0,1 mm 5 m/s 750 mmHg 77%
    07:00 +9°C° 0,1 mm 6 m/s 749 mmHg 72%
    08:00 +9°C° 0,1 mm 6 m/s 749 mmHg 70%
    09:00 +9°C° 0,1 mm 6 m/s 748 mmHg 69%
    10:00 +10°C° 0,1 mm 6 m/s 748 mmHg 67%
    11:00 +10°C° 0,1 mm 6 m/s 748 mmHg 67%
    12:00 +10°C° 0,1 mm 6 m/s 747 mmHg 67%
    13:00 +11°C° 0,1 mm 6 m/s 747 mmHg 68%
    14:00 +10°C° 0,3 mm 6 m/s 747 mmHg 72%
    15:00 +9°C° 0,3 mm 6 m/s 748 mmHg 77%
    16:00 +9°C° 0,3 mm 6 m/s 749 mmHg 81%
    17:00 +8°C° 0,2 mm 6 m/s 749 mmHg 81%
    18:00 +7°C° 0,2 mm 5 m/s 750 mmHg 80%
    19:00 +6°C° 0,2 mm 5 m/s 751 mmHg 80%
    20:00 +5°C° 0,2 mm 5 m/s 752 mmHg 81%
    21:00 +5°C° 0,2 mm 5 m/s 753 mmHg 81%
    22:00 +5°C° 0,2 mm 4 m/s 754 mmHg 82%
    23:00 +5°C° 0,4 mm 4 m/s 755 mmHg 80%

    26 Novembro, Domingo

    Tempo Temperatura Precipitação Vento Pressão Humidade
    00:00 +3°C° 0,4 mm 5 m/s 756 mmHg 79%
    01:00 +3°C° 0,4 mm 5 m/s 756 mmHg 77%
    02:00 +2°C° 0 mm 5 m/s 757 mmHg 77%
    03:00 +2°C° 0 mm 5 m/s 757 mmHg 77%
    04:00 +1°C° 0 mm 5 m/s 757 mmHg 77%
    05:00 +1°C° 0 mm 5 m/s 758 mmHg 78%
    06:00 0°C° 0 mm 5 m/s 758 mmHg 78%
    07:00 0°C° 0 mm 5 m/s 758 mmHg 78%
    08:00 +1°C° 0 mm 5 m/s 759 mmHg 77%
    09:00 +1°C° 0 mm 5 m/s 759 mmHg 75%
    10:00 +1°C° 0 mm 6 m/s 759 mmHg 73%
    11:00 +2°C° 0 mm 5 m/s 759 mmHg 71%
    12:00 +2°C° 0 mm 5 m/s 759 mmHg 69%
    13:00 +3°C° 0 mm 5 m/s 759 mmHg 66%
    14:00 +2°C° 0 mm 5 m/s 759 mmHg 68%
    15:00 +3°C° 0 mm 4 m/s 759 mmHg 70%
    16:00 +1°C° 0 mm 4 m/s 759 mmHg 71%
    17:00 +1°C° 0 mm 4 m/s 759 mmHg 71%
    18:00 +1°C° 0 mm 5 m/s 759 mmHg 71%
    19:00 +1°C° 0 mm 5 m/s 759 mmHg 71%
    20:00 +1°C° 0 mm 5 m/s 759 mmHg 72%
    21:00 +1°C° 0 mm 5 m/s 759 mmHg 72%
    22:00 +1°C° 0 mm 5 m/s 759 mmHg 73%
    23:00 +2°C° 0,1 mm 5 m/s 759 mmHg 75%

    27 Novembro, Segunda-feira

    Tempo Temperatura Precipitação Vento Pressão Humidade
    00:00 +2°C° 0,1 mm 5 m/s 759 mmHg 77%
    01:00 +2°C° 0,1 mm 5 m/s 758 mmHg 80%
    02:00 +2°C° 0 mm 5 m/s 758 mmHg 80%
    03:00 +2°C° 0 mm 5 m/s 759 mmHg 81%
    04:00 +1°C° 0 mm 5 m/s 759 mmHg 82%
    05:00 +1°C° 0 mm 5 m/s 759 mmHg 83%
    06:00 +1°C° 0 mm 5 m/s 759 mmHg 83%
    07:00 +1°C° 0 mm 4 m/s 759 mmHg 84%
    08:00 +1°C° 0 mm 5 m/s 760 mmHg 81%
    09:00 +2°C° 0 mm 5 m/s 760 mmHg 79%
    10:00 +2°C° 0 mm 5 m/s 760 mmHg 77%
    11:00 +3°C° 0 mm 5 m/s 760 mmHg 74%
    12:00 +5°C° 0 mm 5 m/s 760 mmHg 72%
    13:00 +5°C° 0 mm 5 m/s 759 mmHg 69%
    14:00 +5°C° 0 mm 4 m/s 759 mmHg 73%
    15:00 +4°C° 0 mm 4 m/s 759 mmHg 77%
    16:00 +3°C° 0 mm 4 m/s 758 mmHg 80%
    17:00 +3°C° 0 mm 4 m/s 758 mmHg 79%
    18:00 +3°C° 0 mm 4 m/s 758 mmHg 79%
    19:00 +3°C° 0 mm 4 m/s 757 mmHg 78%
    20:00 +2°C° 0 mm 5 m/s 757 mmHg 77%
    21:00 +2°C° 0 mm 5 m/s 756 mmHg 77%
    22:00 +1°C° 0 mm 5 m/s 755 mmHg 76%
    23:00 +1°C° 0 mm 5 m/s 755 mmHg 75%
    Mostrar mais